Weather in Likino

Russia / Vladimir Oblast     55°56′30″N   41°04′52″E
temp.,
°C
wind,
m/s
gust,
m/s
humid.,
%
clouds,
%
prec.,
mm/h
press.,
hPa
HPBL,
m
23 may, mon
mon2300:00−2nnw26855 0.0 1005121
03:00−2nw278968 0.0 1005155
06:00+1nw487499 0.0 1004559
09:00+4nw5856100 0.0 10031385
12:00+7nw585297 0.0 10031561
15:00+9nw5946100 0.0 10022018
18:00+8nnw41052100 0.0 10021716
21:00+4nw3856100 0.0 1002289
24 may, tue
tue2400:00+3w2866100 0.0 1001233
03:00+2wnw41187100 0.1 1002966
06:00+1nw4998100 1.4 1003469
09:00+3nw368493 1.6 10041023
12:00+4nnw457599 0.5 10061219
15:00+5nnw4467100 0.7 10081210
18:00+6nnw356185 0.1 10091248
21:00+1nw26905 0.1 1011102
25 may, wed
wed2500:00−1wnw239734 0.0 101248
03:00+2nw2791100 0.0 1013261
06:00+3nw368885 0.1 1014303
09:00+8nw455493 0.2 10141586
12:00+8nw445299 0.1 10141554
15:00+8wnw4557100 0.1 10141265
18:00+9nw455667 0.0 10141259
21:00+5w118081 0.0 101410
26 may, thu
thu2600:00+4sw2376100 0.0 101456
03:00+2ssw2286100 0.0 101332
06:00+6wsw247389 0.0 1011162
09:00+10w345866 0.0 10101010
12:00+15wnw244768 0.0 10071767
15:00+17nw253998 0.0 10052238
18:00+13e3766100 0.0 1002217
21:00+11ese41069100 0.0 1001481
27 may, fri
fri2700:00+9e4885100 0.2 998314
03:00+8ene4895100 1.5 996352
06:00+8ne4993100 0.4 997390
09:00+12nne347272 0.4 999840
12:00+16nw464970 0.1 10001883
15:00+16wnw575090 0.1 10011844
18:00+10w2795100 0.7 1002357
21:00+8ssw3799100 0.7 1002203